Location: ??????
(55.8274°N, 37.9338°E)
Time: 05:34:47
(UTC+00:00)

Gbstr 26 Del rocket - Visible Passes

Search period start: 13 July 2024 00:00
Search period end: 23 July 2024 00:00
Orbit: 490 x 1240 km, 51.8° (Epoch: 12 July)

Date Brightness Start Highest point End Pass type
(mag) Time Alt. Az. Time Alt. Az. Time Alt. Az.
13 Jul 3.7 19:05:32 10° SW 19:09:54 45° SSE 19:15:14 10° E visible
13 Jul 3.6 20:51:18 10° W 20:56:11 57° S 21:02:17 10° ESE visible
13 Jul 4.2 22:37:28 10° W 22:42:34 39° SSW 22:48:41 10° SE visible
14 Jul 3.6 18:56:38 10° WSW 19:01:00 47° SSE 19:06:19 10° E visible
14 Jul 3.6 20:42:27 10° W 20:47:19 56° S 20:53:19 10° ESE visible
14 Jul 4.3 22:28:40 10° W 22:33:38 36° SSW 22:39:35 10° SE visible
15 Jul 3.5 18:47:46 10° WSW 18:52:06 49° SSE 18:57:24 10° E visible
15 Jul 3.7 20:33:37 10° W 20:38:25 54° S 20:44:21 10° ESE visible
15 Jul 4.4 22:19:53 10° W 22:24:41 33° SSW 22:30:27 10° SSE visible
16 Jul 5.5 00:07:53 10° WSW 00:10:29 13° SW 00:13:17 10° SSW visible
16 Jul 3.7 20:24:46 10° W 20:29:31 52° S 20:35:21 10° ESE visible
16 Jul 4.5 22:11:05 10° W 22:15:45 30° SSW 22:21:16 10° SSE visible
16 Jul 5.6 23:59:56 10° WSW 00:01:28 11° SW 00:03:03 10° SW visible
17 Jul 3.7 20:15:56 10° W 20:20:37 50° SSW 20:26:21 10° ESE visible
17 Jul 4.6 22:02:19 10° W 22:06:47 27° SSW 22:11:08 13° SSE visible
18 Jul 3.8 20:07:05 10° W 20:11:42 47° SSW 20:17:20 10° ESE visible
18 Jul 4.7 21:53:33 10° W 21:57:49 25° SSW 22:00:35 18° S visible
19 Jul 3.8 19:58:14 10° W 20:02:45 44° SSW 20:08:18 10° SE visible
19 Jul 4.9 21:44:49 10° W 21:48:51 22° SW 21:50:43 19° S visible
20 Jul 3.9 19:49:22 10° W 19:53:50 42° SSW 19:58:59 11° SE visible
20 Jul 5.0 21:36:07 10° W 21:39:51 20° SW 21:41:09 18° SSW visible
21 Jul 4.0 19:40:32 10° W 19:44:53 39° SSW 19:49:37 12° SE visible
21 Jul 5.1 21:27:28 10° WSW 21:30:51 17° SW 21:31:49 17° SSW visible
22 Jul 4.1 19:31:41 10° W 19:35:56 36° SSW 19:40:23 13° SE visible
22 Jul 5.3 21:18:53 10° WSW 21:21:49 15° SW 21:22:35 15° SSW visible
